Weather Service Report


771 
ASUS44 KFWD 251415
RWRTX 
NORTH TEXAS HOURLY WEATHER ROUNDUP
NATIONAL WEATHER SERVICE FORT WORTH TX
900 AM CDT THU MAY 25 2017

NOTE: "FAIR" INDICATES FEW OR NO CLOUDS BELOW 12,000 FEET WITH NO
SIGNIFICANT WEATHER AND/OR OBSTRUCTIONS TO VISIBILITY.

TXZ118-119-251500-
DALLAS/FORT WORTH METROPLEX
  
CITY           SKY/WX    TMP DP  RH WIND       PRES   REMARKS
DFW AIRPORT    SUNNY     71  53  52 S13       29.70S                  
DALLAS LOVE    SUNNY     70  52  52 S15G22    29.72F                  
FTW MEACHAM    SUNNY     71  53  52 S12       29.69S                  
DAL-EXECUTIVE  SUNNY     69  55  60 S9        29.72F                  
FTW-ALLIANCE   MOSUNNY   70  53  54 S9G18     29.69F                  
FTW-NAS-JRB    SUNNY     72  53  51 S7        29.70S                  
FTW-SPINKS     SUNNY     70  55  60 SE8       29.72S                  
ARLINGTON      SUNNY     71  52  50 S14G20    29.71S                  
GRAND PRAIRIE  SUNNY     66  52  59 SE12      29.72F                  
MESQUITE       SUNNY     70  54  56 SE12G17   29.74S                  
LANCASTER      SUNNY     69  55  60 S9        29.74F                  
$$

TXZ091>094-102>105-117-120-121-131>134-251500-
NORTH CENTRAL TEXAS
  
CITY           SKY/WX    TMP DP  RH WIND       PRES   REMARKS
SHRMAN/DENISON SUNNY     67  51  56 SE14      29.72F                  
GAINESVILLE    SUNNY     67  52  58 S13       29.72S                  
BOWIE          SUNNY     66  55  68 SE8       29.69R                  
BRIDGEPORT     SUNNY     67  53  60 SE7       29.70R                  
DECATUR        SUNNY     69  52  54 SE10      29.70S                  
DENTON         SUNNY     68  55  63 SE12      29.70S                  
MCKINNEY       SUNNY     69  55  60 S13       29.73F                  
BONHAM         SUNNY     68  50  52 SE16      29.74F                  
GREENVILLE     SUNNY     70  55  60 SE12G17   29.76S                  
ROCKWALL       SUNNY     69  53  57 S12G18    29.74F                  
TERRELL        SUNNY     70  53  54 S14       29.75F                  
WAXAHACHIE     SUNNY     66  56  70 SE9       29.74F                  
CLEBURNE       SUNNY     70  55  60 S13G18    29.72S                  
GRANBURY       SUNNY     71  54  55 SE7       29.70S                  
$$

TXZ083>090-098>101-113>116-127>130-139>142-154-155-251500-
WESTERN NORTH TEXAS
  
CITY           SKY/WX    TMP DP  RH WIND       PRES   REMARKS
WICHITA FALLS  MOSUNNY   66  51  58 SE16      29.64S                  
WF-KICKAPOO    SUNNY     67  53  59 SE12G22   29.67S                  
VERNON         SUNNY     67  48  49 SE13      29.62F                  
ABILENE        SUNNY     70  49  47 S21G30    29.66S                  
ABILENE-DYESS  SUNNY     72  51  46 S18G28    29.63S                  
GRAHAM         SUNNY     71  53  52 SE7       29.65S                  
BRECKENRIDGE   SUNNY     75  45  34 S15G26    29.66S                  
CISCO          SUNNY     72  48  43 S15G24    29.69S                  
EASTLAND       SUNNY     71  48  43 SW18G26   29.69S                  
RANGER         SUNNY     70  51  49 S13G21    29.70S                  
MINERAL WELLS  SUNNY     69  52  54 SE12      29.67S                  
STEPHENVILLE   SUNNY     70  52  52 S9        29.73S                  
COMANCHE       SUNNY     72  51  46 SW20G29   29.71R                  
BROWNWOOD      SUNNY     68  54  60 S8        29.73R                  
COLEMAN        SUNNY     71  49  46 S12       29.71S                  
$$

TXZ143>147-156>162-174-175-251500-
CENTRAL TEXAS
  
CITY           SKY/WX    TMP DP  RH WIND       PRES   REMARKS
WACO           SUNNY     71  55  56 S13       29.73S                  
WACO-MCGREGOR  SUNNY     73  52  47 S15G23    29.73F                  
HILLSBORO      MOSUNNY   71  54  55 S14G20    29.73S                  
CORSICANA      SUNNY     70  56  61 S10       29.77S                  
MEXIA          SUNNY     67  56  66 S10G20    29.77R                  
HEARNE         SUNNY     70  62  74 S12       29.79S                  
CAMERON        SUNNY     72  59  65 SW18G26   29.77S                  
TEMPLE         SUNNY     71  55  56 S16       29.75S                  
KILLEEN        SUNNY     72  47  40 S18G26    29.73S                  
KILLEEN-SKYLRK SUNNY     74  51  44 S16G23    29.75S                  
FORT HOOD      SUNNY     73  49  42 S17       29.71S                  
HAMILTON       SUNNY     73  53  48 SW21      29.73R                  
LAMPASAS       SUNNY     73  54  51 SW13G18   29.74R                  
$$

TXZ095>097-106>112-122>126-135>138-148>153-164>167-251500-
EAST TEXAS
  
CITY           SKY/WX    TMP DP  RH WIND       PRES   REMARKS
PARIS          SUNNY     66  52  59 SE14      29.79S                  
SULPHUR SPRNGS SUNNY     69  51  54 SE14      29.79S                  
MOUNT PLEASANT SUNNY     65  55  69 SE6       29.82S                  
GILMER         SUNNY     68  53  58 SE7       29.80S                  
MINEOLA        SUNNY     66  54  63 SE8G17    29.78S                  
TYLER          SUNNY     68  54  60 S12       29.79S                  
LONGVIEW       SUNNY     69  56  62 S12       29.81R                  
MARSHALL       SUNNY     65  55  70 S8        29.85R                  
ATHENS         SUNNY     66  55  68 S7        29.77S                  
PALESTINE      SUNNY     68  59  73 S9        29.81S                  
JACKSONVILLE   SUNNY     66  56  70 S8        29.83S                  
HENDERSON      SUNNY     67  56  67 S6        29.83S                  
CENTER         SUNNY     70  60  70 SE6       29.84S                  
NACOGDOCHES    SUNNY     66  55  68 S8        29.82R                  
LUFKIN         SUNNY     68  58  70 SE6       29.83R                  
$$

SUPPLEMENTAL OBSERVATIONS (NWS FORT WORTH AREA)
  
CITY           SKY/WX    TMP DP  RH WIND       PRES   REMARKS
DENISON DAM      N/A     68  50  52 SE9         N/A                   
CADDO GRASSLND   N/A     68  50  52 S9          N/A                   
PAT MAYSE LAKE   N/A     64  46  52 E14         N/A                   
GREENVILLE       N/A     70  52  52 S9          N/A                   
CEDAR HILL       N/A     72  52  49 S12G20      N/A                   
LBJ GRASSLAND    N/A     72  52  49 SE10        N/A                   
POSSUM KINGDOM   N/A     75  48  38 S10         N/A                   
GRANBURY         N/A     72  54  53 SE8         N/A                   
COMANCHE         N/A     73  50  43 SW18G28     N/A                   
MCGREGOR         N/A     73  52  46 S12G22      N/A                   
TEMPLE           N/A     72  55  56 S12G20      N/A                   
LAKE LIMESTONE   N/A     72  61  68 S10         N/A                   
ATHENS           N/A     70  54  56 S10         N/A                   
$$

SUPPLEMENTAL OBSERVATIONS (NWS NORMAN AREA)
  
CITY           SKY/WX    TMP DP  RH WIND       PRES   REMARKS
GOODLETT         N/A     73  48  41 S16G22    29.58F                  
ODELL            N/A     68  52  57 SE16      29.62F                  
CROWELL          N/A     72  52  49 S15       29.62F                  
KNOX CITY        N/A     74  44  34 S18       29.63F                  
SEYMOUR          N/A     74  50  43 S12       29.64S                  
MILLERS CREEK    N/A     75  48  38 S18G26      N/A                   
$$

SUPPLEMENTAL OBSERVATIONS (NWS SAN ANGELO AREA)
  
CITY           SKY/WX    TMP DP  RH WIND       PRES   REMARKS
WEINERT          N/A     74  48  40 S15       29.64R                  
HASKELL          N/A     72  46  39 S17G24    29.63S                  
THROCKMORTON     N/A     74  50  41 S12       29.65S                  
STAMFORD         N/A     73  51  45 S15       29.65S                  
CLYDE            N/A     71  51  47 S16       29.69S                  
HAMBY            N/A     73  48  40 SW21G28     N/A                   
IVIE RESERVOIR   N/A     75  52  43 S12         N/A                   
COLORADO BEND    N/A     73  52  46 W13G21      N/A                   
$$

SUPPLEMENTAL OBSERVATIONS (NWS SHREVEPORT AREA)
  
CITY           SKY/WX    TMP DP  RH WIND       PRES   REMARKS
CLARKSVILLE      N/A     66  50  55 SE10        N/A                   
TEXARKANA        N/A     66  55  68 S3          N/A                   
LINDEN           N/A     68  52  56 SE5         N/A                   
CADDO LAKE       N/A     70  55  60 S3          N/A                   
GILMER           N/A     70  52  52 S7          N/A                   
HENDERSON        N/A     70  57  64 S5          N/A                   
LUFKIN           N/A     70  57  64 MISG        N/A                   
N SABINE NF      N/A     64  61  88 MISG        N/A                   
S SABINE NF      N/A     72  57  60 SE2         N/A                   
$$

SUPPLEMENTAL OBSERVATIONS ARE A COLLECTION OF AUTOMATED INSTRUMENTS
THAT ARE MAINTAINED BY A VARIETY OF FEDERAL AND STATE AGENCIES. 
CERTAIN ELEMENTS...SUCH AS HUMIDITY VALUES AND SUSTAINED WIND 
SPEEDS...MAY BE APPROXIMATED.

  

Return to Home page


Western Regional Climate Center, wrcc@dri.edu